Flag for U.S.A. Weather past 2 weeks in Montpelier, Vermont, U.S.A.

Now
74 °F

More clouds than sun.


Feels Like: 77 °F
Forecast: 53 / 79 °F
Wind: 7 mph from North

Location: Knapp State Airport

Current Time: Jul 26, 2014 at 4:10:42 PM

Latest Report: Jul 26, 2014 at 3:51 PM


Visibility: 10 mi

Pressure: 29.92 "Hg

Humidity: 50%

Dew point: 54 °F

Location of MontpelierLocation

Historic Weather in Montpelier — Graph

°F

Montpelier temperature yesterday

Maximum temperature yesterday: 75 °F (at 1:51 PM)
Minimum temperature yesterday: 48 °F (at 3:51 AM)
Average temperature yesterday: 63 °F

Past Weeks' High & Low Weather Summary

 TemperatureHumidityPressure
High86 °F (Jul 23, 1:51 PM)100% (Jul 14, 2:51 AM)30.35 "Hg (Jul 14, 2:51 AM)
Low48 °F (Jul 18, 3:51 AM)39% (Jul 11, 2:51 PM)29.75 "Hg (Jul 15, 3:51 PM)
Average66 °F77%30.04 "Hg
* Reported Jul 11 2:51 PM — Jul 26 2:51 PM, Montpelier, Weather by CustomWeather, © 2014

Note: Actual official high and low records may vary slightly from our data, if they occured in-between our weather recording intervals... More about our weather records

Advertising

Montpelier weather history for previous 24 hours

 ConditionsComfort  
Time TempWeatherWind HumidityBarometerVisibility
2:51 PM
Jul 26
75 °FScattered clouds.10 mph48%29.93 "Hg10 mi
1:51 PM75 °FPartly sunny.7 mph47%29.93 "Hg10 mi
12:51 PM74 °FPassing clouds.8 mph46%29.94 "Hg10 mi
11:51 AM73 °FPassing clouds.10 mph50%29.96 "Hg10 mi
10:51 AM69 °FPartly sunny.7 mph61%29.96 "Hg10 mi
9:51 AM71 °FPassing clouds.12 mph59%29.96 "Hg10 mi
8:51 AM70 °FPartly sunny.8 mph64%29.97 "Hg10 mi
7:51 AM58 °FScattered clouds.No wind97%29.98 "Hg7 mi
6:51 AM54 °FPassing clouds.No wind100%29.98 "Hg7 mi
6:04 AM51 °FPassing clouds.No wind100%29.98 "Hg7 mi
4:51 AM52 °FFog.3 mph100%29.98 "Hg1 mi
3:51 AM53 °FFog.3 mph96%29.98 "Hg3 mi
3:03 AM54 °FPassing clouds.3 mph100%29.99 "Hg7 mi
2:53 AM56 °FFog.No wind97%29.99 "Hg3 mi
1:51 AM57 °FClear.No wind93%29.99 "Hg7 mi
12:51 AM63 °FClear.3 mph73%29.99 "Hg10 mi
11:51 PM
Jul 25
65 °FClear.3 mph70%29.99 "Hg10 mi
10:51 PM61 °FClear.5 mph87%30.00 "Hg10 mi
9:51 PM64 °FClear.3 mph78%29.98 "Hg10 mi
8:51 PM64 °FSunny.3 mph78%29.98 "Hg10 mi
7:51 PM68 °FSunny.3 mph70%29.97 "Hg9 mi
6:51 PM73 °FPassing clouds.3 mph57%29.97 "Hg9 mi
5:51 PM74 °FSunny.6 mph52%29.96 "Hg8 mi
4:51 PM75 °FScattered clouds.5 mph50%29.97 "Hg9 mi
Weather by CustomWeather, © 2014

See weather overviewHow to use our weather pages